• In Germany
  • List of Countries
  • For 7 days
  • Water Temperature
  • Satellite Maps
  • Weather Map
  • Weather Widgets
  • user-avatar
    Login

    Hourly Weather Isachkovo

    Today, 21 October, Sunday

    Time Temperature Precipitation Wind Pressure Humidity
    00:00 +3°C° 0 mm 0 mps 753 mmHg 91%
    01:00 +3°C° 0 mm 0 mps 753 mmHg 92%
    02:00 +3°C° 0 mm 0 mps 753 mmHg 92%
    03:00 +3°C° 0 mm 0 mps 753 mmHg 93%
    04:00 +2°C° 0 mm 0 mps 753 mmHg 93%
    05:00 +2°C° 0 mm 0 mps 753 mmHg 93%
    06:00 +2°C° 0 mm 0 mps 754 mmHg 92%
    07:00 +3°C° 0 mm 0 mps 754 mmHg 91%
    08:00 +3°C° 0 mm 0 mps 755 mmHg 89%
    09:00 +5°C° 0 mm 0 mps 755 mmHg 82%
    10:00 +7°C° 0 mm 0 mps 755 mmHg 75%
    11:00 +8°C° 0 mm 0 mps 755 mmHg 68%
    12:00 +9°C° 0 mm 0 mps 755 mmHg 65%
    13:00 +9°C° 0 mm 0 mps 755 mmHg 63%
    14:00 +9°C° 0 mm 0 mps 755 mmHg 61%
    15:00 +8°C° 0 mm 0 mps 755 mmHg 66%
    16:00 +7°C° 0 mm 0 mps 755 mmHg 72%
    17:00 +6°C° 0 mm 0 mps 755 mmHg 77%
    18:00 +6°C° 0 mm 1 mps 755 mmHg 79%
    19:00 +6°C° 0 mm 1 mps 755 mmHg 81%
    20:00 +5°C° 0 mm 1 mps 755 mmHg 83%
    21:00 +5°C° 0 mm 1 mps 755 mmHg 84%
    22:00 +5°C° 0 mm 1 mps 755 mmHg 85%
    23:00 +3°C° 0 mm 2 mps 755 mmHg 86%

    Tomorrow, 22 October, Monday

    Time Temperature Precipitation Wind Pressure Humidity
    00:00 +3°C° 0 mm 2 mps 754 mmHg 87%
    01:00 +3°C° 0 mm 2 mps 754 mmHg 87%
    02:00 +3°C° 0 mm 2 mps 754 mmHg 88%
    03:00 +3°C° 0 mm 2 mps 754 mmHg 88%
    04:00 +3°C° 0 mm 2 mps 753 mmHg 88%
    05:00 +2°C° 0 mm 3 mps 753 mmHg 89%
    06:00 +2°C° 0 mm 3 mps 753 mmHg 88%
    07:00 +2°C° 0 mm 3 mps 752 mmHg 87%
    08:00 +3°C° 0 mm 3 mps 752 mmHg 86%
    09:00 +4°C° 0 mm 4 mps 752 mmHg 81%
    10:00 +6°C° 0 mm 4 mps 751 mmHg 76%
    11:00 +7°C° 0 mm 4 mps 751 mmHg 72%
    12:00 +8°C° 0 mm 4 mps 750 mmHg 70%
    13:00 +8°C° 0 mm 4 mps 750 mmHg 68%
    14:00 +9°C° 0 mm 5 mps 749 mmHg 66%
    15:00 +8°C° 0 mm 4 mps 748 mmHg 69%
    16:00 +8°C° 0 mm 4 mps 748 mmHg 73%
    17:00 +7°C° 0 mm 4 mps 747 mmHg 76%
    18:00 +7°C° 0.1 mm 4 mps 747 mmHg 79%
    19:00 +7°C° 0.1 mm 4 mps 747 mmHg 81%
    20:00 +7°C° 0.1 mm 4 mps 746 mmHg 83%
    21:00 +7°C° 0.5 mm 4 mps 746 mmHg 85%
    22:00 +8°C° 0.5 mm 3 mps 745 mmHg 88%
    23:00 +8°C° 0.5 mm 3 mps 745 mmHg 90%

    Day after tomorrow, 23 October, Tuesday

    Time Temperature Precipitation Wind Pressure Humidity
    00:00 +7°C° 0.6 mm 3 mps 745 mmHg 90%
    01:00 +7°C° 0.6 mm 3 mps 745 mmHg 90%
    02:00 +7°C° 0.6 mm 3 mps 744 mmHg 90%
    03:00 +5°C° 0.1 mm 3 mps 744 mmHg 90%
    04:00 +5°C° 0.1 mm 2 mps 744 mmHg 90%
    05:00 +4°C° 0.1 mm 2 mps 744 mmHg 90%
    06:00 +4°C° 0 mm 2 mps 744 mmHg 90%
    07:00 +4°C° 0 mm 2 mps 743 mmHg 89%
    08:00 +3°C° 0 mm 2 mps 743 mmHg 89%
    09:00 +4°C° 0 mm 2 mps 743 mmHg 82%
    10:00 +6°C° 0 mm 2 mps 743 mmHg 76%
    11:00 +7°C° 0 mm 2 mps 742 mmHg 69%
    12:00 +7°C° 0 mm 2 mps 741 mmHg 66%
    13:00 +7°C° 0 mm 3 mps 740 mmHg 63%
    14:00 +8°C° 0 mm 3 mps 739 mmHg 60%
    15:00 +7°C° 0 mm 3 mps 738 mmHg 65%
    16:00 +5°C° 0 mm 3 mps 738 mmHg 69%
    17:00 +4°C° 0 mm 3 mps 737 mmHg 74%
    18:00 +4°C° 0 mm 3 mps 735 mmHg 75%
    19:00 +3°C° 0 mm 4 mps 734 mmHg 76%
    20:00 +3°C° 0 mm 4 mps 733 mmHg 77%
    21:00 +2°C° 0 mm 5 mps 732 mmHg 78%
    22:00 +2°C° 0 mm 5 mps 731 mmHg 79%
    23:00 +2°C° 0 mm 5 mps 729 mmHg 80%

    24 October, Wednesday

    Time Temperature Precipitation Wind Pressure Humidity
    00:00 +2°C° 0.2 mm 5 mps 728 mmHg 80%
    01:00 +2°C° 0.2 mm 6 mps 727 mmHg 80%
    02:00 +2°C° 0.2 mm 6 mps 726 mmHg 80%
    03:00 +2°C° 0.4 mm 6 mps 725 mmHg 81%
    04:00 +2°C° 0.4 mm 6 mps 724 mmHg 81%
    05:00 +2°C° 0.4 mm 5 mps 723 mmHg 82%
    06:00 +2°C° 0.6 mm 5 mps 723 mmHg 83%
    07:00 +3°C° 0.6 mm 5 mps 723 mmHg 84%
    08:00 +4°C° 0.6 mm 4 mps 722 mmHg 85%
    09:00 +4°C° 0.3 mm 4 mps 722 mmHg 85%
    10:00 +4°C° 0.3 mm 4 mps 723 mmHg 85%
    11:00 +4°C° 0.3 mm 3 mps 723 mmHg 85%
    12:00 +4°C° 0.3 mm 3 mps 723 mmHg 86%
    13:00 +4°C° 0.3 mm 3 mps 723 mmHg 86%
    14:00 +6°C° 0.3 mm 2 mps 723 mmHg 86%
    15:00 +5°C° 0.3 mm 2 mps 723 mmHg 88%
    16:00 +5°C° 0.3 mm 2 mps 723 mmHg 89%
    17:00 +5°C° 0.3 mm 2 mps 723 mmHg 90%
    18:00 +5°C° 0.2 mm 2 mps 723 mmHg 91%
    19:00 +5°C° 0.2 mm 2 mps 723 mmHg 91%
    20:00 +4°C° 0.2 mm 2 mps 724 mmHg 92%
    21:00 +4°C° 0.3 mm 2 mps 724 mmHg 91%
    22:00 +4°C° 0.3 mm 2 mps 724 mmHg 91%
    23:00 +3°C° 0.3 mm 3 mps 724 mmHg 91%

    25 October, Thursday

    Time Temperature Precipitation Wind Pressure Humidity
    00:00 +3°C° 0.3 mm 3 mps 724 mmHg 91%
    01:00 +3°C° 0.3 mm 3 mps 724 mmHg 90%
    02:00 +3°C° 0.3 mm 4 mps 724 mmHg 90%
    03:00 +3°C° 0.3 mm 4 mps 725 mmHg 89%
    04:00 +3°C° 0.3 mm 4 mps 725 mmHg 89%
    05:00 +3°C° 0.3 mm 4 mps 725 mmHg 88%
    06:00 +3°C° 0.2 mm 4 mps 725 mmHg 88%
    07:00 +3°C° 0.2 mm 4 mps 726 mmHg 87%
    08:00 +3°C° 0.2 mm 4 mps 726 mmHg 87%
    09:00 +3°C° 0.2 mm 4 mps 727 mmHg 85%
    10:00 +3°C° 0.2 mm 4 mps 727 mmHg 84%
    11:00 +4°C° 0.2 mm 4 mps 727 mmHg 83%
    12:00 +4°C° 0.1 mm 4 mps 728 mmHg 80%
    13:00 +4°C° 0.1 mm 4 mps 728 mmHg 78%
    14:00 +4°C° 0.1 mm 4 mps 729 mmHg 76%
    15:00 +4°C° 0 mm 4 mps 729 mmHg 78%
    16:00 +3°C° 0 mm 3 mps 730 mmHg 80%
    17:00 +3°C° 0 mm 3 mps 730 mmHg 82%
    18:00 +2°C° 0 mm 3 mps 731 mmHg 84%
    19:00 +2°C° 0 mm 3 mps 731 mmHg 86%
    20:00 +1°C° 0 mm 3 mps 731 mmHg 88%
    21:00 +1°C° 0 mm 3 mps 732 mmHg 90%
    22:00 +2°C° 0 mm 2 mps 732 mmHg 92%
    23:00 +2°C° 0 mm 2 mps 732 mmHg 93%

    26 October, Friday

    Time Temperature Precipitation Wind Pressure Humidity
    00:00 +1°C° 0 mm 2 mps 732 mmHg 94%
    01:00 +1°C° 0 mm 2 mps 733 mmHg 94%
    02:00 +1°C° 0 mm 2 mps 733 mmHg 95%
    03:00 +1°C° 0 mm 2 mps 733 mmHg 95%
    04:00 +1°C° 0 mm 2 mps 733 mmHg 95%
    05:00 +1°C° 0 mm 2 mps 733 mmHg 95%
    06:00 +1°C° 0 mm 2 mps 734 mmHg 94%
    07:00 +1°C° 0 mm 2 mps 734 mmHg 93%
    08:00 +1°C° 0 mm 2 mps 734 mmHg 92%
    09:00 +2°C° 0.2 mm 2 mps 734 mmHg 89%
    10:00 +2°C° 0.2 mm 2 mps 734 mmHg 87%
    11:00 +3°C° 0.2 mm 2 mps 735 mmHg 85%
    12:00 +4°C° 0.2 mm 2 mps 735 mmHg 83%
    13:00 +3°C° 0.2 mm 3 mps 735 mmHg 82%
    14:00 +4°C° 0.2 mm 3 mps 735 mmHg 81%
    15:00 +4°C° 0 mm 2 mps 735 mmHg 83%
    16:00 +3°C° 0 mm 2 mps 735 mmHg 86%
    17:00 +2°C° 0 mm 2 mps 736 mmHg 89%
    18:00 +2°C° 0 mm 2 mps 736 mmHg 90%
    19:00 +1°C° 0 mm 2 mps 736 mmHg 91%
    20:00 +1°C° 0 mm 2 mps 736 mmHg 92%
    21:00 +1°C° 0 mm 2 mps 736 mmHg 92%
    22:00 +1°C° 0 mm 2 mps 736 mmHg 92%
    23:00 +1°C° 0 mm 2 mps 736 mmHg 92%
    Show more